Погода в Рыбкине

Россия / Республика Мордовия     54°15′10″N   43°46′03″E
темп.,
°C
ветер,
м/с
пор.,
м/с
влажн.,
%
обл.,
%
осадки,
мм/ч
давл.,
гПа
погр.,
м
12 апреля, пн
пн1200:00+5св41076100 0.0 1032350
03:00+5всв51188100 0.3 1033382
06:00+5всв51391100 0.6 1033420
09:00+7всв61284100 0.6 1033477
12:00+11в7976100 0.0 1033562
15:00+14в687299 0.0 1032628
18:00+12в598158 0.0 1032371
21:00+9вюв4119375 0.0 1032243
13 апреля, вт
вт1300:00+9вюв3109226 0.0 1032174
03:00+8юв389060 0.0 1032130
06:00+7юв31085100 0.0 1032161
09:00+13ююв510566 0.0 1032423
12:00+17ююв683865 0.0 1031846
15:00+19ююв67335 0.0 10301201
18:00+16ююв37486 0.0 1029155
21:00+11ююв386084 0.0 1029119
14 апреля, ср
ср1400:00+9юв386677 0.0 1029117
03:00+7юв377230 0.0 1028107
06:00+6юв37735 0.0 1028121
09:00+12юв58505 0.0 1027416
12:00+17ююв57360 0.0 10251029
15:00+18ююв57310 0.0 10231367
18:00+15ююв364664 0.0 1022140
21:00+11юв35618 0.0 102281
15 апреля, чт
чт1500:00+9ююв34719 0.0 102242
03:00+7ююв33795 0.0 102238
06:00+7юв34825 0.0 102168
09:00+13ююв3559100 0.0 1021355
12:00+17ююв3342100 0.0 10191139
15:00+19юв22352 0.0 10181431
18:00+16юв23484 0.0 101854
21:00+12в335794 0.0 101831
16 апреля, пт
пт1600:00+10в336366 0.0 101834
03:00+9в336884 0.0 101834
06:00+9всв3472100 0.0 101866
09:00+15в3554100 0.0 1018341
12:00+18всв344286 0.0 10181165
15:00+19всв443962 0.0 10181818
18:00+16св695152 0.0 1019553
21:00+10св7137799 0.0 1022520